La Course des Remparts

Class.NomPrénomSexeCatTempsVitesse
1URRUTYPierreMSE00:34:2917,4 km/h
2PETRIACQLionelMV100:35:1017,06 km/h
3ZARRAAnthonyMV100:35:4716,77 km/h
4ALLAIREClémentMSE00:36:5116,28 km/h
5LEVOYGuillaumeMSE00:37:1616,1 km/h
6BALLANDRASAurelienMSE00:37:1816,09 km/h
7MESMACQUE-CHAUBADINDEGUYBaptisteMES00:37:4115,92 km/h
8CAMPOBriceMSE00:38:0415,76 km/h
9BOISSEJulienMSE00:38:0715,74 km/h
10CANTONClementMSE00:38:3815,53 km/h
11CALDUMBIDEericMSE00:39:0415,36 km/h
12ROTHSimonMES00:39:1515,29 km/h
13CASTAIGNEDEPatriceMV100:39:1515,29 km/h
14JOUGLAOlivierMSE00:39:1815,27 km/h
15LAURENTAntoninMES00:39:3415,16 km/h
16FIGUEROAfrancoisMSE00:39:5615,03 km/h
17DUMOTIERBenjaminMSE00:39:5715,02 km/h
18BARANTHOLAdrienMSE00:39:5915,01 km/h
19AGUERPatriceMSE00:40:0015 km/h
20MAKHLOULHafedMSE00:40:2314,86 km/h
21GARNIERBaptisteMSE00:40:3014,81 km/h
22DIRIBARNEJean-ChristopheMV200:40:3714,77 km/h
23SALLABERRYNicolasMCA00:40:4014,75 km/h
24CAILHOLHugoMSE00:40:4214,74 km/h
25PENINFlorianMSE00:40:5414,67 km/h
26LABOYLucasMJU00:41:0314,62 km/h
27RAMOSLionelMV100:41:0614,6 km/h
28POISBLAUDYoannMSE00:41:1114,57 km/h
29RENAUXDavidMSE00:41:2114,51 km/h
30DROUARTNicolasMSE00:41:3014,46 km/h
31SANQUERRomainMSE00:41:4014,4 km/h
32LE MERRERChristooheMV100:41:4914,35 km/h
33LAPORTEAURELIENMV100:41:5814,3 km/h
34MARDIROSSIANSevanMSE00:42:1014,23 km/h
35MAGNATAlexandreMSE00:42:1314,21 km/h
36CRATTELETJonathanMSE00:42:1714,19 km/h
37BUNSébastienMSE00:42:2514,15 km/h
38BOURGOINMixelMV200:42:2614,14 km/h
39LAFONDMickaelMSE00:42:4014,06 km/h
40FOURTICCorentinMSE00:42:4614,03 km/h
41LARRONDEMichelMV200:42:4714,02 km/h
42DEGOSFredericMV100:42:5214 km/h
43DAUJATHugoMSE00:42:5813,96 km/h
44CHOPEITIAJeromeMSE00:42:5813,96 km/h
45BUCHMikaelMV100:43:0713,92 km/h
46HOURDEBAIGTSMélissaFES00:43:2013,85 km/h
47MISMACQSébastienFSE00:43:5713,65 km/h
48BERNOSNicolasMSE00:44:0413,62 km/h
49PENINRomaricMSE00:44:0813,6 km/h
50DIVETGrégoryMV100:44:0913,59 km/h
51LEAL LORENZGuillermoMSE00:44:1113,58 km/h
52STORCHIHugoMV100:44:1213,57 km/h
53CANALSHugoMES00:44:1313,57 km/h
54BERNÈDEWilfriedMV100:44:1613,55 km/h
55ORTETHerveMV200:44:2013,53 km/h
56SAINT LAURENTGwendolineFSE00:44:2113,53 km/h
57SALLAGOÏTYMathieuMV100:44:2313,52 km/h
58CAPDEVILLESergeMV200:44:2713,5 km/h
59ROUCHFlorianFSE00:44:2913,49 km/h
60HONDARRAGUEFabienMSE00:44:3713,45 km/h
61ARAOlivierMV200:44:3713,45 km/h
62MORAISCédricMV100:44:3713,45 km/h
63JEZEQUELLOUTHIERRYFV200:44:4013,43 km/h
64FAVREQuentinMSE00:44:4013,43 km/h
65BRESACCedricMV100:44:4413,41 km/h
66PARTARRIEUChristianMV100:44:4713,4 km/h
67ETCHEVERRYAndoniMSE00:44:5813,34 km/h
68ETCHEVERRIASebMSE00:45:0013,33 km/h
69VALLETAxelleFSE00:45:0313,32 km/h
70AUBRYCyrilMV100:45:0413,31 km/h
71CAMPOVINCENTMSE00:45:0513,31 km/h
72GAUTIERDenisMV100:45:0513,31 km/h
73COLINGillesMV100:45:0613,3 km/h
74MAURYJOANMSE00:45:0713,3 km/h
75RORATOCharlesMSE00:45:0813,29 km/h
76DESOUSAPAOLOMSE00:45:0913,29 km/h
77LESPIAUCQMathieuMV100:45:1213,27 km/h
78MURCIAGeoffreyMSE00:45:1213,27 km/h
79DHOTELEricMV100:45:1313,27 km/h
80MELISJulienMSE00:45:1413,26 km/h
81LAMBURUThibaudMSE00:45:1613,25 km/h
82NOBLETSébastienMV200:45:1713,25 km/h
83GALTIEJean-baptisteMSE00:45:2213,23 km/h
84LEGROSCyrilMV100:45:2513,21 km/h
85PADRONESKepaMSE00:45:3013,19 km/h
86CHENARDMarc-AndréMSE00:45:3213,18 km/h
87PINCHARTJulieFSE00:45:3313,17 km/h
88PERCHICOTAxelMSE00:45:3313,17 km/h
89DURANDMarcMV200:45:3313,17 km/h
90GUILLOTPaulMSE00:45:3613,16 km/h
91IRIBARRENNicolasMES00:45:3913,14 km/h
92VIGUIERPierreMSE00:45:4413,12 km/h
93GUYOTNicolasMV100:45:4913,1 km/h
94ARTIGUESPhilippeMSE00:45:4913,1 km/h
95ETCHEPAREPantxikaFSE00:45:5313,08 km/h
96ARTIGOLLESChristopheMV100:45:5613,06 km/h
97FLORANEThomasMES00:45:5713,06 km/h
98CABALLEROBenjaminMSE00:45:5813,05 km/h
99LARRABURUMarie-laureFV100:45:5813,05 km/h
100LABATSebastienMV100:46:0313,03 km/h
101CHAULETGuillaumeMV100:46:0313,03 km/h
102KRENCKERStephaneMV100:46:0313,03 km/h
103MIGUELGORRYMurielleFV100:46:0413,02 km/h
104SAMSylvanoMSE00:46:0413,02 km/h
105AJAMaximeMSE00:46:0513,02 km/h
106PERSILLONVincentMV100:46:0813,01 km/h
107MARTINEZOlivierMSE00:46:1412,98 km/h
108LAFONAlexandreMV100:46:1512,97 km/h
109AROTCARENAMichelMV100:46:1612,97 km/h
110MOULINStéphaneMV200:46:2112,94 km/h
111ARCHIDOITJeromeMSE00:46:2312,94 km/h
112PROUXPascalMV200:46:2312,94 km/h
113KANTEMoussaMSE00:46:2312,94 km/h
114NOUSBAUMHeleneFSE00:46:2512,93 km/h
115RUTAULTEricMSE00:46:2612,92 km/h
116AGUERREALAINMV200:46:2912,91 km/h
117BARDOTTIGaetanMSE00:46:3312,89 km/h
118ROUYREVincentMSE00:46:3412,88 km/h
119CARLIERThomasMV100:46:3412,88 km/h
120CHOIXDominiqueMV100:46:3612,88 km/h
121HAROUCHECharlesMV100:46:4012,86 km/h
122TRANCHANDBenoitMSE00:46:4212,85 km/h
123NARZABALMarcMSE00:46:4312,84 km/h
124OSPITALETCHEFLORENTMSE00:46:4812,82 km/h
125DEVAUXStephaneMV100:46:4812,82 km/h
126JOLYDamienMSE00:46:5012,81 km/h
127LALANNEPhilippeMSE00:46:5112,81 km/h
128CAUVINFrédéricMV200:46:5612,78 km/h
129WILLIARTJean-FrançoisMV100:46:5712,78 km/h
130DUBARTJoanMSE00:47:0012,77 km/h
131BREGANILaurentMV100:47:0612,74 km/h
132BORDASTEPHANEMV100:47:1012,72 km/h
133DIASDavidMV100:47:1212,71 km/h
134ELGOYHENJerômeMV100:47:1412,7 km/h
135GUILLAUMENerinMSE00:47:2112,67 km/h
136IDIARTThierryMV100:47:2512,65 km/h
137HEITZAugustinMES00:47:2612,65 km/h
138RAINERIRémiMSE00:47:2712,64 km/h
139MACHICOTEGEOFFREYMSE00:47:2912,64 km/h
140GORYDominiqueMV300:47:3412,61 km/h
141BAYLEOlivierMV100:47:3612,61 km/h
142POURREREJulienMSE00:47:3912,59 km/h
143VIDALBrunoMV200:47:3912,59 km/h
144LAGRUELaurentMSE00:47:4312,57 km/h
145LABOURDEREJean MarcMV200:47:4412,57 km/h
146LABAIGTStéphaneMV100:47:4612,56 km/h
147LAMOTHEDanielMV200:47:4912,55 km/h
148GARMENDIALaurentziMV100:47:4912,55 km/h
149FORTABATGuillaumeMSE00:47:5112,54 km/h
150AUGEREAUTerryMSE00:47:5512,52 km/h
151LOUBIOUThierryMV100:47:5612,52 km/h
152MESTRENisrineMSE00:48:0012,5 km/h
153LABARREREYohanMSE00:48:0012,5 km/h
154CRÉMADESStéphaneMV100:48:0212,49 km/h
155MICHELJimmyMSE00:48:0312,49 km/h
156HABERNETLoicMSE00:48:0412,48 km/h
157QUENAULTFredericMV200:48:0712,47 km/h
158IRIGOINNicolasMSE00:48:0812,47 km/h
159PLACÉGregoryMSE00:48:1012,46 km/h
160BRUYANTXavierMV200:48:1112,45 km/h
161NERINRaphaelMSE00:48:1112,45 km/h
162CHATAGNEAlainMV300:48:1112,45 km/h
163BOULINPeioMSE00:48:1312,44 km/h
164MINIERRONANMV100:48:1412,44 km/h
165GAUTIERLauraFSE00:48:1512,44 km/h
166DETCHENIQUERémiMSE00:48:1812,42 km/h
167LAPEGUEJulienMSE00:48:1912,42 km/h
168CASTROStéphanieFV100:48:2212,41 km/h
169MONGELorrisMSE00:48:3512,35 km/h
170PENAUDLucieFSE00:48:3612,35 km/h
171LABORDEThomasMSE00:48:3712,34 km/h
172NOLLEAUGillesMV300:48:4412,31 km/h
173HERMANT-TAULETPatriciaFV200:48:4712,3 km/h
174ROUILLOTYoannMSE00:48:5012,29 km/h
175SAMMUTGuillaumeMSE00:48:5012,29 km/h
176SALLESPhilippeMV100:48:5412,27 km/h
177FERLAThierryMV200:48:5712,26 km/h
178BISCAYNikoMSE00:48:5812,25 km/h
179HEGOBURUFrancoisMSE00:49:0212,24 km/h
180BINQUETYannickMSE00:49:0312,23 km/h
181DURRITCAGUECyrilMSE00:49:0412,23 km/h
182PIANEZZOLALudovicMSE00:49:0712,22 km/h
183ETCHEPARERamuntxoMV100:49:1512,18 km/h
184DASCONHENRIMSE00:49:1612,18 km/h
185CHAURREAUEricMV200:49:1912,17 km/h
186DE CONTISébastienMV100:49:2212,15 km/h
187OLIVIERAymericMSE00:49:2212,15 km/h
188CARRIERECyrilMV100:49:2712,13 km/h
189GYMBOLISTARomainMSE00:49:2912,13 km/h
190ETCHEVERRYGerardMV200:49:3412,1 km/h
191LANNOISLucMV100:49:3412,1 km/h
192MOURADYassineMJU00:49:3512,1 km/h
193BELLECAVELaureFSE00:49:3612,1 km/h
194VIDALTeanoMES00:49:3812,09 km/h
195VEILLONDominiqueMV100:49:3912,08 km/h
196LAPORTEBenoitMSE00:49:4212,07 km/h
197AYOUBA MOUSSAIshakaMSE00:49:4312,07 km/h
198BIEVERFrancoisMSE00:49:4412,06 km/h
199CLAUDEEspondaMV100:49:4712,05 km/h
200FREREStephaneMSE00:49:5212,03 km/h
201CAVEMathieuMSE00:49:5412,02 km/h
202LAURENTPASCALMV100:49:5712,01 km/h
203MONGINMaiteFSE00:50:0012 km/h
204TURPEAUKarineFV200:50:0211,99 km/h
205RUNCHMAN-PETITLaurenceFV200:50:0311,99 km/h
206BESSARDPascalMV200:50:0411,98 km/h
207BOULMONTEricMV100:50:0911,96 km/h
208VIVENT-GIRAUDMurielFSE00:50:1011,96 km/h
209HIRIBERRYStéphaneMV100:50:1111,96 km/h
210CHARBEAUAdrienMSE00:50:1211,95 km/h
211IRIMIACédricMV100:50:1511,94 km/h
212BOURDAINFredericMV100:50:1611,94 km/h
213BOURDAINRomainMCA00:50:1611,94 km/h
214LOMBARTEMAGALIFSE00:50:2111,92 km/h
215FAYETMichelMV200:50:2111,92 km/h
216JANVIERMARCMSE00:50:2311,91 km/h
217VOYERJeromeMV100:50:2511,9 km/h
218MICHAUDSANDRINEFV200:50:2611,9 km/h
219ALAINVeraMV200:50:2711,89 km/h
220BUTETGillesMSE00:50:3011,88 km/h
221ANSASDavidMV100:50:3111,88 km/h
222BENNOUNA-GREENEMehdiMV100:50:3211,87 km/h
223SAUCETJean FrancoisMV100:50:3311,87 km/h
224CHIRZADRohullahMJU00:50:3311,87 km/h
225PINQUIEJean-BaptisteMV100:50:3311,87 km/h
226MANTEArnaudMSE00:50:3511,86 km/h
227POUGNANDCécileFV100:50:3511,86 km/h
228ESPINOSASalimaFV100:50:3911,85 km/h
229SIMONEAUNicolasMV100:50:3911,85 km/h
230BROUSSEAntoineMSE00:50:4211,83 km/h
231PERRONThomasMSE00:50:4511,82 km/h
232IRIARTAntoineMV100:50:4611,82 km/h
233CORNUTDavidMV100:50:4711,81 km/h
234MALLETFrançois-XavierMSE00:50:5211,8 km/h
235CABEZASMickaëlMSE00:50:5211,8 km/h
236BAILONJean-MichelMV200:50:5711,78 km/h
237SOUBIERaphaelleFV100:51:0011,76 km/h
238ESPONDAAnne-marieFV100:51:0111,76 km/h
239DEBAVELAEREAlexisMV100:51:0511,75 km/h
240COUTATMichelMV300:51:1211,72 km/h
241JARSALÉBénédicteFSE00:51:1311,71 km/h
242SUZANNEVirginieFSE00:51:1611,7 km/h
243HELLIETBrunoMV300:51:1711,7 km/h
244BAIGORRIPatxiMV100:51:1711,7 km/h
245PETITArnaudMV100:51:1811,7 km/h
246JEZEQUELLOUMaxenceMES00:51:2011,69 km/h
247CHARRITTEPierreMSE00:51:2211,68 km/h
248MOREUPhilippeMV200:51:2411,67 km/h
249ELISSALDEPierreMSE00:51:2511,67 km/h
250ARMAGNACVincentMSE00:51:3011,65 km/h
251DASTEGUYMathieuMSE00:51:3011,65 km/h
252CHARUEISABELLEFV100:51:3111,65 km/h
253DUBOISEmilieFV100:51:3311,64 km/h
254SAGEFlorentMSE00:51:3511,63 km/h
255JULLYMikeMSE00:51:3711,62 km/h
256HITCHESebastienMV100:51:4011,61 km/h
257FONTANSabrinaFV100:51:4411,6 km/h
258JAUREGUYMikelMES00:51:4511,59 km/h
259LASSALLEFabriceMV100:51:4511,59 km/h
260VALLEELauraFSE00:51:4711,59 km/h
261DARRICAUXavierMV100:51:4711,59 km/h
262VIDALJeanpierreMV200:51:4811,58 km/h
263LEVOYAmandineFSE00:51:4911,58 km/h
264BECHERICStephaneMV100:51:5111,57 km/h
265ANDRIEUXThomasMV100:51:5211,57 km/h
266DARRICAUSergeMV200:51:5211,57 km/h
267DUBARRYSoniaFSE00:51:5511,56 km/h
268AVELLAAntoineMSE00:52:0211,53 km/h
269JOBETVincentMSE00:52:0411,52 km/h
270DUVAUCHELVirginieFV100:52:0611,52 km/h
271MINIERDELPHINEFV100:52:0611,52 km/h
272VEDEREJulienMSE00:52:1011,5 km/h
273GILLERONChristopheMV100:52:1011,5 km/h
274HANCEWICZHugoMJU00:52:1411,49 km/h
275PEYROUTETJean-BernardMV200:52:1911,47 km/h
276GUIBERTFranckMV100:52:2211,46 km/h
277FIGUEIRASKevinMSE00:52:2711,44 km/h
278SCHMITTDominiqueMSE00:52:2911,43 km/h
279ERREÇARRETAnnickFSE00:52:3011,43 km/h
280MARTEAUTiphanieFES00:52:3111,42 km/h
281PAGESCécileFSE00:52:3311,42 km/h
282SOURBEPierreMV200:52:3611,41 km/h
283BROCHETBenjaminMSE00:52:4111,39 km/h
284PERINEricMV200:52:4511,37 km/h
285MASMOULIJOELMV100:52:4611,37 km/h
286STELJulienMSE00:52:4611,37 km/h
287GALERAFrédéricMV200:52:4711,37 km/h
288VASSEURMauriceMV300:52:5011,36 km/h
289BELLOTTOFrancisMV300:52:5211,35 km/h
290TAULETPhilippeMV100:52:5511,34 km/h
291DURRITCAGUELauraFSE00:52:5711,33 km/h
292GIRAUDAlexandreMV100:52:5911,32 km/h
293DAGUERREBernadetteFV200:52:5911,32 km/h
294CALLETTIFabriceMV200:53:0211,31 km/h
295DEL AMOHELENEFSE00:53:0211,31 km/h
296GUÉRINJean-FrançoisMV300:53:0611,3 km/h
297SARRIASLaurentMV200:53:0811,29 km/h
298BADIOLAMartaFV100:53:0911,29 km/h
299LANNESEmilieFV100:53:1311,27 km/h
300RICHARDJean-lucMV100:53:1411,27 km/h
301SARHYBenoitMSE00:53:1611,26 km/h
302SOARES DE OLIVEIRAMathieuMSE00:53:1911,25 km/h
303NOTARYJulienMSE00:53:2011,25 km/h
304LEVISTEFrancoisMV300:53:2411,24 km/h
305ROCHVincentMV100:53:2511,23 km/h
306NOLANPATRICKMV100:53:2511,23 km/h
307VADINOlivierMSE00:53:3211,21 km/h
308LAVIGNEDamienMSE00:53:3311,2 km/h
309PICARDOlivierMV200:53:3311,2 km/h
310VENIANTJean RegisMV200:53:3311,2 km/h
311CHARBEAUPatriceMV300:53:3611,19 km/h
312DUVIGNAUJean-ClaudeMV100:53:3811,19 km/h
313DICHARRYSolèneFSE00:53:3911,18 km/h
314STAFRACHChristopheMSE00:53:3911,18 km/h
315SALLESPatrickMV200:53:4011,18 km/h
316ITOIZSebastienMV100:53:4211,17 km/h
317LISSAGUEJean marcMV200:53:4311,17 km/h
318DAUTUNJérômeMV200:53:4411,17 km/h
319SARABANDOFernandoMV200:53:4711,16 km/h
320LECOINTREGuyMV400:53:5211,14 km/h
321POTHIER-ARRUTIPierreMSE00:53:5311,14 km/h
322COUSSONElsaFSE00:53:5311,14 km/h
323DESTRUYSCharlesMV100:53:5511,13 km/h
324LAMOURELLEGillesMV200:53:5511,13 km/h
325PORTEBOEUFIsabelleFV200:54:0011,11 km/h
326DUFOURCQSylvainMSE00:54:0011,11 km/h
327BRUNJean-françoisMV200:54:0311,1 km/h
328GAUTIERRomainMSE00:54:0311,1 km/h
329DEGOSAnthonyMSE00:54:0511,09 km/h
330BISCAYChristopheMV100:54:0911,08 km/h
331DUPREPhilippeMV200:54:1111,07 km/h
332GRAROWSKIDaniielMSE00:54:1311,07 km/h
333BRUNETLaurentMV100:54:1611,06 km/h
334TEBOULNicolasMSE00:54:1711,05 km/h
335DAUBIEBastienMES00:54:2011,04 km/h
336DALÉASBRIGITTEFV200:54:2211,04 km/h
337CLABEFredericMV200:54:2311,03 km/h
338ROQUESebastienMV100:54:2411,03 km/h
339GAUJACQFabriceMV100:54:2811,02 km/h
340LE POLLOZECEmilieFSE00:54:2811,02 km/h
341POIRAUDFranckMV100:54:2911,01 km/h
342PLACEAUEricMV200:54:3710,99 km/h
343RAYMONDXavierMSE00:54:4010,98 km/h
344SERISSylvainMSE00:54:4210,97 km/h
345ESTAYNOUOlivierMV100:54:4210,97 km/h
346GUERINTeddyMV100:54:4610,96 km/h
347DAVIDOdranMSE00:54:4610,96 km/h
348CASSOUStephaneMV100:54:5110,94 km/h
349MARINELLIDavidMV200:54:5110,94 km/h
350HUARTLaurenceFV100:54:5310,93 km/h
351BLANCOPabloMV300:54:5510,93 km/h
352URLACHERLucieFSE00:54:5810,92 km/h
353GIPOULOUClementMSE00:54:5910,91 km/h
354RENAUXCathyFV200:55:0110,91 km/h
355CAVEAlainMV300:55:0110,91 km/h
356MORILLASSimonMV100:55:0310,9 km/h
357GUENEAUMichelMV200:55:0610,89 km/h
358MARTINXavierMV100:55:1010,88 km/h
359ALEXANDREClementMES00:55:1110,87 km/h
360BETACHETCharlotteFSE00:55:1110,87 km/h
361POTINJonathanMSE00:55:1410,86 km/h
362AURIACFannyFSE00:55:1510,86 km/h
363POURREREStephaneMV100:55:1810,85 km/h
364GHERSIDanielMV300:55:2710,82 km/h
365BISCAICHIPYPaxkalMV200:55:2810,82 km/h
366BISCAICHIPYPettanMV200:55:2910,81 km/h
367COUTELLECYoannMV100:55:3010,81 km/h
368BEHENGARAYThierryMV100:55:3310,8 km/h
369PLANTEYGuillaumeMSE00:55:3510,79 km/h
370ETCHENIQUEAdrienMSE00:55:3610,79 km/h
371SANSENACQXavierMV100:55:3910,78 km/h
372HONTAASPatrikMV100:55:4110,78 km/h
373GONIDECAxelleFJU00:55:4110,78 km/h
374SARRIASCécileFV200:55:4710,76 km/h
375CABEPaulineFES00:55:4710,76 km/h
376SROKATimotheeMSE00:55:5110,74 km/h
377GIMENEZRobertMV300:55:5110,74 km/h
378CHATAGNEMoniqueFV200:55:5110,74 km/h
379RENAULTFrançoisMV100:55:5210,74 km/h
380PAULMalcolmMV100:55:5710,72 km/h
381DAGYValerieFV200:55:5710,72 km/h
382DUFOURCQ-ÇABALETTESandrineFSE00:56:0010,71 km/h
383MURATChristopheMV100:56:0110,71 km/h
384CHARRITTESergeMV300:56:0110,71 km/h
385BUTET MOHORADEDelphineFV100:56:0410,7 km/h
386BUREAUNicolasMV100:56:0410,7 km/h
387MERCADIERPierreMV300:56:0410,7 km/h
388HANDLERDavidMSE00:56:0510,7 km/h
389RICHARDSNicolaFV100:56:0710,69 km/h
390GAIMEYvanMV100:56:1110,68 km/h
391LABATCecileFSE00:56:1310,67 km/h
392BENGOCHEAMathieuMSE00:56:1610,66 km/h
393PELLETIERChristopheMV100:56:1810,66 km/h
394GHOULEMMathieuMSE00:56:2210,64 km/h
395HIDONDOClaudeMV100:56:2310,64 km/h
396GODENECHERégineFV100:56:2310,64 km/h
397DEHEEGHERMathieuMSE00:56:3010,62 km/h
398ROLLAINMarie-LaureFV100:56:3010,62 km/h
399LATHIEREGillesMV300:56:3110,62 km/h
400BARTETEPatrickMV300:56:3410,61 km/h
401POZZO DI BORGOMarieFV200:56:4010,59 km/h
402ETCHEVERRIAPierreMV200:56:4210,58 km/h
403LAQUETGeoffroyMV100:56:4410,58 km/h
404GOYETCHESébastienMSE00:56:4610,57 km/h
405FOURCADEThomasMSE00:56:4710,57 km/h
406LARTIGUESylvainMES00:56:4810,56 km/h
407MALLETDanielMV300:56:4810,56 km/h
408LABEGUERIEPASCALMV200:56:5010,56 km/h
409GASTON GARICOITZNicoleFV200:56:5110,55 km/h
410HOURDEBAIGTSSylvieFV200:56:5110,55 km/h
411ARAMENDIAAlainMV300:56:5210,55 km/h
412PETRIACQPhilippeMV100:56:5510,54 km/h
413ARROYAVELaurentMSE00:56:5710,54 km/h
414EYMARDMurielFV100:56:5710,54 km/h
415GRONDINFredericMV100:57:0310,52 km/h
416MALE DIT CAZOTSophieFSE00:57:0310,52 km/h
417CIMOLAIHugoMV100:57:0410,51 km/h
418PINELJEAN BAPTISTEMV100:57:0510,51 km/h
419BERGADIEUClementMJU00:57:0810,5 km/h
420BORIEDavidMSE00:57:0910,5 km/h
421PAGÉSClémenceFSE00:57:1210,49 km/h
422IMAZLaetitiaFSE00:57:1610,48 km/h
423CABEMaylisFES00:57:1710,47 km/h
424DE LERAAlbertoMSE00:57:1710,47 km/h
425ARTAECHEVARRIAAmaiaFSE00:57:1710,47 km/h
426PAJOTArnaudMSE00:57:1810,47 km/h
427TRAILLEBastienMSE00:57:1810,47 km/h
428PAJOTLaetitiaFSE00:57:1910,47 km/h
429UHARTMathildeFSE00:57:2010,47 km/h
430HORNOYSylvainMV100:57:2110,46 km/h
431SUPERVIEMarionFES00:57:2110,46 km/h
432BRIANDBerengereFSE00:57:2410,45 km/h
433DUFAUFlorenceFV100:57:2910,44 km/h
434BOIDIN-NICOLLEAntoineMSE00:57:3010,43 km/h
435VAUTIERAurélieFSE00:57:3010,43 km/h
436LONGUEIRACaroleFV200:57:3010,43 km/h
437HARIGNORDOQUYPeioMSE00:57:3210,43 km/h
438IZANSAlexianeFSE00:57:3410,42 km/h
439BOUDESCoralieFSE00:57:3710,41 km/h
440ROZIERESThomasMSE00:57:3710,41 km/h
441LAPOUBLEMaikaFSE00:57:3810,41 km/h
442PONTIERBénédicteFSE00:57:4110,4 km/h
443HIRIBARREN GORROCHATEGUISébastienMSE00:57:4610,39 km/h
444CHARRONEmilieFSE00:57:4610,39 km/h
445FORTABATClaireFSE00:57:4810,38 km/h
446UHARTWilliamMV200:57:4810,38 km/h
447LASSALLEJean-christianMV300:57:4910,38 km/h
448DESVALOGNERobinMSE00:57:5010,37 km/h
449ETCHEGUIBELLaurentMSE00:57:5810,35 km/h
450LEBOEUFCLEMENCEFSE00:58:0010,34 km/h
451BAUMGARTHVirginieFSE00:58:0010,34 km/h
452HARYMathildeFSE00:58:0110,34 km/h
453BERNETJean-marcMV200:58:0210,34 km/h
454BOULIERPascalMV100:58:0210,34 km/h
455BELLOCQAurelienMSE00:58:0610,33 km/h
456SALLABERRYLionelMV200:58:1110,31 km/h
457HARSCOUETYvonMV200:58:1210,31 km/h
458MARRONNIERPierreMV200:58:1610,3 km/h
459LAGARRIGUEJulietteFSE00:58:1710,29 km/h
460ELLIEEmmanuelMV200:58:1910,29 km/h
461HILLOOUHerveMV100:58:2010,29 km/h
462BIDEGAIN-BIDAURYAnaïsFSE00:58:2010,29 km/h
463DEFONTAINESophieFSE00:58:2410,27 km/h
464ELISSONDOChristelleFV100:58:2610,27 km/h
465FOISJean-BernardMV300:58:2910,26 km/h
466FANENChristopheMV100:58:3010,26 km/h
467GUICHENDUCQAdrienMSE00:58:3010,26 km/h
468BURGOSJean-MarcMSE00:58:3110,25 km/h
469NARZABALJessicaFSE00:58:3210,25 km/h
470ORABEElsaFSE00:58:3210,25 km/h
471JULLIENFrédéricMSE00:58:3310,25 km/h
472DAMESTOYMathildeFES00:58:3610,24 km/h
473BIGUÉEstelleFES00:58:3610,24 km/h
474DALGALARRONDOJean-noëlMV300:58:3810,23 km/h
475ROLLINGEricMSE00:58:3810,23 km/h
476ELUARTLiseFV100:58:3910,23 km/h
477JAUREGUIBERRYPhilippeMV100:58:4110,22 km/h
478COLINFrédéricMV100:58:4310,22 km/h
479SANGARELausséniMV100:58:4410,22 km/h
480FALXAAngeleFV100:58:4610,21 km/h
481LAPHONDFabriceMV100:58:4710,21 km/h
482LAPHITZJeanMV100:58:4810,2 km/h
483FERRERJean-MichelMV300:59:0010,17 km/h
484COSSEOlivierMSE00:59:1810,12 km/h
485OTHEGUYMarionFES00:59:2310,1 km/h
486ITURRIAJean-PhilippeMV200:59:2710,09 km/h
487BATALLAMathiasMSE00:59:2910,09 km/h
488JAUREGUIBERRYSOPHIEFV100:59:3310,08 km/h
489CASASSUSSTEPHANEMV100:59:3910,06 km/h
490HAMMAMINéjibMV300:59:4210,05 km/h
491FAUBLADIERLUCIEFSE00:59:4610,04 km/h
492JAURYMarielleFV200:59:4810,03 km/h
493SÉRISAnaisFES00:59:4910,03 km/h
494GRABETFredericMV100:59:5010,03 km/h
495EYHERAMOUNHOMaitenaFES00:59:5610,01 km/h
496FALAISEVictorMSE00:59:5610,01 km/h
497TREBESSESLaurentMV100:59:5910 km/h
498GAUBERTPierreMV201:00:0010 km/h
499BARONLaetitiaFSE01:00:049,99 km/h
500MEILLANJean MichelMV301:00:069,98 km/h
501BARONOlivierMV101:00:079,98 km/h
502DUCLERCFrançoiseFV301:00:079,98 km/h
503BERROETAMichelMV201:00:119,97 km/h
504GUYONSeverineFV101:00:139,96 km/h
505FERRAGUTICamilleFSE01:00:159,96 km/h
506DACQUETXavierMV101:00:219,94 km/h
507KORRICHIPierreMSE01:00:239,94 km/h
508DUMUISStephaneMV101:00:259,93 km/h
509BERTHOUCarolineFCA01:00:259,93 km/h
510DURIETZAlbanMSE01:00:279,93 km/h
511MILOXChloéFES01:00:289,92 km/h
512PERRETGerardMV401:00:299,92 km/h
513DREYFUSPhilippeMV101:00:319,91 km/h
514RODRIGUESChristelleFV101:00:319,91 km/h
515DREYFUSSandrineFV101:00:329,91 km/h
516EZQUERRAXavierMV201:00:329,91 km/h
517SELOUANENahimaFV101:00:339,91 km/h
518CNEUDESalomeFCA01:00:339,91 km/h
519SANCHEZAnne-laureFSE01:00:349,91 km/h
520DULOSTEJérômeMSE01:00:369,9 km/h
521CAPDEVILLECyrilMV101:00:369,9 km/h
522ALLEGREMarieFES01:00:419,89 km/h
523ETCHEBESTXantianaFSE01:00:439,88 km/h
524LARREREYannickMV101:00:459,88 km/h
525POMMIERSIsabelleFV101:00:459,88 km/h
526CHIAMBERLANDOVirginieFSE01:00:489,87 km/h
527ROUILLONJean-HuguesMV201:00:489,87 km/h
528DUCHMANNIsabelleFV101:00:549,85 km/h
529PEREIRAXavierMSE01:00:559,85 km/h
530BERTHOUEricMV201:00:559,85 km/h
531JUNCALaurentMSE01:00:599,84 km/h
532GEANYNigelMV201:01:019,83 km/h
533PARTHENAYEddieMV201:01:059,82 km/h
534VOISINAlexandreMV101:01:099,81 km/h
535LEMERCIERVioletteFSE01:01:099,81 km/h
536LEMERCIERSuzonFSE01:01:099,81 km/h
537JOVENETDAVIDMV101:01:099,81 km/h
538VOISINAurelieFV101:01:109,81 km/h
539GOMEZYoanMSE01:01:129,8 km/h
540PAULJulieFV101:01:159,8 km/h
541BARUSFrédéricMV101:01:169,79 km/h
542COMMETJean PierreMV201:01:179,79 km/h
543TARDYBENEDICTEFV101:01:189,79 km/h
544ABERADEREAnaïsFES01:01:209,78 km/h
545FOURNEAUSTEPHANEMV101:01:239,77 km/h
546BERETERBIDEHeleneFV101:01:269,77 km/h
547BRUN-HAUSSEGUYDanielleFV401:01:279,76 km/h
548LE QUILLEUCJeffMSE01:01:289,76 km/h
549TASTETSergeMV301:01:369,74 km/h
550TASTETFlorenceFV201:01:389,73 km/h
551AHMADIEnayatMJU01:01:389,73 km/h
552KRATZAlonaFV101:01:389,73 km/h
553COMBLATStéphaneMV101:01:439,72 km/h
554ESCARTINMagalyFSE01:01:499,71 km/h
555DIHARCEPhilippeMV201:01:509,7 km/h
556LANNESLéaFSE01:01:579,69 km/h
557PETITMikaMV101:01:599,68 km/h
558POTINHeloiseFSE01:02:009,68 km/h
559DUPRÉPascalineFV101:02:009,68 km/h
560BAILONClaireFSE01:02:039,67 km/h
561DUPONTDimitriMSE01:02:049,67 km/h
562CARUSOAuroreFES01:02:129,65 km/h
563SIEGELValeryMV101:02:139,64 km/h
564HIRIARTLucieFSE01:02:209,63 km/h
565FUMERONJeromeMV101:02:259,61 km/h
566ETCHEGOYENAmandineFSE01:02:259,61 km/h
567FLORESFredericMV101:02:269,61 km/h
568PIRESSandrineFV101:02:299,6 km/h
569MARCHETTORossanoMV201:02:299,6 km/h
570THEAUAudreyFSE01:02:429,57 km/h
571GUILLOTCatherineFV201:02:529,54 km/h
572MENDYMarie-joFV201:02:549,54 km/h
573BARATEAUAnne-liseFSE01:02:599,53 km/h
574UHARTCélineFJU01:03:019,52 km/h
575IRIARTCamilleFSE01:03:039,52 km/h
576MAILMarieFSE01:03:039,52 km/h
577VALETTEAlexandraFV101:03:169,48 km/h
578SAUSSEJean FrancoisMV301:03:179,48 km/h
579JOUANGUYYannickMV201:03:199,48 km/h
580ARANALouisMV301:03:219,47 km/h
581DARRENOUGUENicolasMSE01:03:229,47 km/h
582DUBECQPhilippeMV201:03:259,46 km/h
583ETCHEVERRYBernardinMV301:03:259,46 km/h
584DAYMONClaraFSE01:03:299,45 km/h
585LAFAGEAlainMV201:03:359,44 km/h
586LESTABLEFrancoisMV201:03:359,44 km/h
587LANGONMichelMV401:03:479,41 km/h
588CARDONNEAnnaFV101:03:529,39 km/h
589HENRYMarionFSE01:03:539,39 km/h
590SEGUINNicolasMV101:03:559,39 km/h
591MAROTJean-françoisMV301:04:039,37 km/h
592PUYOULETLaetitiaFSE01:04:059,36 km/h
593TASTETMargauxFSE01:04:069,36 km/h
594CASTELLJeremyMSE01:04:179,33 km/h
595CARONJoelMV101:04:219,32 km/h
596DAVIDPriscillaFSE01:04:219,32 km/h
597LAUGINIELilianMSE01:04:269,31 km/h
598BONHOURECélineFSE01:04:329,3 km/h
599NAUDINSophieFV101:04:349,29 km/h
600CARREAUMarionFSE01:04:439,27 km/h
601MICHELENAChristelleFSE01:04:469,26 km/h
602VINSONNEAUDavidMV101:04:529,25 km/h
603SIXMarylinFV101:04:529,25 km/h
604MINVIELLESebastienMV101:04:539,25 km/h
605PAULINELagatieFSE01:04:539,25 km/h
606DUCLOSSoleneFES01:04:549,24 km/h
607OTAEGUIElianeFV201:04:549,24 km/h
608VINSONNEAUIsabelleFV101:04:579,24 km/h
609GUIGNARDFabienneFV101:05:009,23 km/h
610ASSERINJean ClaudeMV201:05:009,23 km/h
611ZUMETAMarie carmenFV101:05:019,23 km/h
612DE LAGOUTINEJérémieMSE01:05:149,2 km/h
613DE LAGOUTINEChristopheMV201:05:149,2 km/h
614METGEMicheleFV301:05:159,2 km/h
615SALLABERRYPatriciaFV201:05:199,19 km/h
616PITARCHHeleneFV301:05:209,18 km/h
617TEIXEIRAFranciscoMV201:05:249,17 km/h
618JOUINCelineFV101:05:269,17 km/h
619VALETTEFabriceMV101:05:279,17 km/h
620ERRECARTMirenFSE01:05:289,16 km/h
621LAFITTEMurielFV101:05:299,16 km/h
622JANSSOONEPerrineFSE01:05:299,16 km/h
623ORTEGAMarineFJU01:05:339,15 km/h
624HIRIBERRYIbanMJU01:05:339,15 km/h
625BOURRICAUDChristineFV201:05:349,15 km/h
626JOURDAINRémiMSE01:05:379,14 km/h
627COUILLARDChristopheMV201:05:409,14 km/h
628AMISSEBrunoMV201:05:489,12 km/h
629BACONNAISSébastienMSE01:05:509,11 km/h
630CSECHCamilleFSE01:05:569,1 km/h
631CARDONNEStéphanieFSE01:05:569,1 km/h
632PÈREWilliamMSE01:06:009,09 km/h
633ROUMAT MARRONNIERCatherineFV201:06:109,07 km/h
634LHERMINENicolasMSE01:06:119,07 km/h
635ETCHEGARAYFrantxaFV101:06:169,05 km/h
636SARRAUDESergeMV201:06:209,05 km/h
637CHEVILLOTEvaFES01:06:229,04 km/h
638MESPLEDEYvesMV201:06:299,02 km/h
639BIDEGORRYBeatriceFV101:06:309,02 km/h
640BORGEAISSandrineFV101:06:309,02 km/h
641BINOTSandrineFV101:06:349,01 km/h
642LAPORTEPascaleFV201:06:409 km/h
643GENTILSeverineFV101:06:488,98 km/h
644SARASOLARaymondMV201:06:508,98 km/h
645IRIBARRENEstelleFSE01:06:518,98 km/h
646MILLERMurielFV101:06:518,98 km/h
647COLRATDidierMV201:06:528,97 km/h
648GAMANELeilaFV201:06:538,97 km/h
649GERARDMorvanMV101:06:548,97 km/h
650GONÇALVESLaurindFV201:06:548,97 km/h
651SALHABenjaminMSE01:06:558,97 km/h
652BARROUILLETElisaFSE01:06:568,96 km/h
653PECASTAINGSBrunoMV201:07:048,95 km/h
654CHANTELOTArielleFV101:07:068,94 km/h
655DELANGHEBeñatMV201:07:078,94 km/h
656PEREZCecileFV101:07:108,93 km/h
657ROLOSPatrickMV201:07:198,91 km/h
658DESCOMBESCélineFSE01:07:198,91 km/h
659MARTINAnaisFSE01:07:198,91 km/h
660GUERINNathalieFV201:07:198,91 km/h
661VILASSarahFSE01:07:258,9 km/h
662CLABENathalieFV101:07:278,9 km/h
663PLANTET GAUFFINETMélanieFSE01:07:278,9 km/h
664ROLOSEvelyneFV101:07:288,89 km/h
665DENISSolennFSE01:07:338,88 km/h
666LARRALDEMarie LiseFV301:07:378,87 km/h
667HYVERLucileFSE01:07:438,86 km/h
668LATAILLADECharlotteFSE01:07:518,84 km/h
669GUILLAUMEVivianeFV101:07:528,84 km/h
670REALFrancisMV301:07:528,84 km/h
671ROMEUCamilleFES01:07:548,84 km/h
672RAGOZZIMurielFV301:07:578,83 km/h
673PREBENDEAnnieFV201:08:238,77 km/h
674LORENZOMarieFV201:08:378,74 km/h
675JODAREmilieFSE01:08:378,74 km/h
676ABADIECathyFV201:08:398,74 km/h
677PETITMarie-CharlotteFSE01:08:538,71 km/h
678DAUPHINJean-ClaudeMV301:08:538,71 km/h
679BARAZALSylvieFV101:08:548,71 km/h
680CHERETMarie sophieFV101:09:048,69 km/h
681MUTHULARJean-LouisMV301:09:248,65 km/h
682HIRIBERRYSylvieFSE01:09:328,63 km/h
683TURONSabineFV101:09:368,62 km/h
684LATRUBESSEAnneFV201:09:408,61 km/h
685PENAUDRégisMV101:09:408,61 km/h
686PETITCarolineFV101:09:428,61 km/h
687STÉPHANNathalieFV101:09:488,6 km/h
688UHALDEPauletteFV201:09:528,59 km/h
689GALABRUNAmaiaFSE01:09:598,57 km/h
690SAURAISThierryMV101:10:018,57 km/h
691LE PARCJulieFSE01:10:028,57 km/h
692NAVARROAurelieFV101:10:258,52 km/h
693LORIN DE REUREJeanMV101:10:408,49 km/h
694HERRERAMichelMV201:10:468,48 km/h
695POMARETPeggyFV101:10:488,47 km/h
696INGWILLERFrédériqueFSE01:10:528,47 km/h
697DASSEChristianMV301:10:588,45 km/h
698BAYLELaurenceFV101:10:598,45 km/h
699DUPRUILHBenoitMV101:11:038,44 km/h
700PITARCHJULIEFSE01:11:048,44 km/h
701BARGAINLaureFSE01:11:168,42 km/h
702DADAMOVirginiaFV101:11:428,37 km/h
703DELAFOYQuentinMSE01:11:588,34 km/h
704BRITTO DA SILVAIlzaFV201:12:018,33 km/h
705ESPINOSAALAINMV401:13:098,2 km/h
706ETCHECAHARMoniqueFV201:13:238,18 km/h
707MARTICORENAAGNESFV101:13:238,18 km/h
708MARTINEZBrunoMV201:13:238,18 km/h
709LANNESHenriMV301:13:308,16 km/h
710HAMELINJean-ClaudeMV401:13:338,16 km/h
711CAMPOSEOOrnellaFSE01:13:358,15 km/h
712VIGNERONAlineFSE01:13:378,15 km/h
713ETCHEVERRYMoniqueFV201:13:538,12 km/h
714DELEURENCEFrankMV101:14:218,07 km/h
715CARREREGillesMV101:14:238,07 km/h
716BERGESMarie HeleneFV301:14:278,06 km/h
717JOANTEGUYsylvieFV201:14:378,04 km/h
718BOUYSSONNIEcarineFSE01:14:428,03 km/h
719DUBOQUETKarineFV201:14:538,01 km/h
720ADAMONathalieFV201:15:067,99 km/h
721JAUREGUYManonFES01:15:197,97 km/h
722BERGADIEUClaireFV101:15:247,96 km/h
723RIDELLise MarieFSE01:15:267,95 km/h
724DUFOURCQMurielFV101:16:047,89 km/h
725BOUTETValérieFSE01:16:357,83 km/h
726GOYHENNEEricMV101:16:387,83 km/h
727BORDABernadetteFV301:17:097,78 km/h
728THORRIGNACEmilieFSE01:19:597,5 km/h
729NOUGUE-DESSUSCélineFV101:20:277,46 km/h
730DOPPLERLaurieFSE01:20:277,46 km/h
731DEJEANMarineFSE01:20:407,44 km/h
732GAUFFREMarie EmilieFSE01:20:507,42 km/h
733HEMMERTPhilippeMV301:21:047,4 km/h
734TEXIEROcéaneFES01:21:207,38 km/h
 Pas de résultats